OneWeb SL0563

operational
NORAD ID: 55800 Int'l Des: 2023-029 Owner: ONEWEBN Country: UK Constellation: oneweb
LEOCIRCULARPOLARONEWEB_TYPE

关于 OneWeb SL0563

正在加载描述...

实时位置

正在加载3D地球...

即将过境

高度历史

Altitude vs Time

uPlot chart will show altitude changes over time

两行轨道根数

1 55800U 23029E 25350.33981850 .00000042 00000-0 71369-4 0 9992
2 55800 87.9203 310.9597 0002089 79.4492 280.6877 13.20770024137002
Epoch: Dec 16, 2025 • Age: 13 hours

当前状态

高度 1193.9 km
速度 7.26 km/s
星下点 81.66°N, 70.15°E
发射日期 Mar 9, 2023
运行时间 2.7 years
类型 internet

技术详情

分类 Payload
质量 148.00 kg
干质量 140.00 kg
总质量 148.00 kg
长度 1.30 m
直径 1.00 m
跨度 5.00 m
形状 Trapezoid+2 pan
制造商 ONEWUS
平台类型 ARROW
阶段状态 In Orbit
所有者/国家 ONEWEBN/UK

大型星座

Loading constellations...